Simultaneous Nadir Overpasses (SNOs) Predictions

Prediction of SNOs between GOES-16 and METOP-C Satellite Orbit:

Table of predicted SNOs for the next 14.0 days since TLE Epoch: 3/13/2021
Index Date Time (GOES-16) GOES-16 Lat,Lon METOP-C Lat,Lon Distance(km) Time Diff (sec)
1 03/14/2021 02:24:43 -0.03, -75.18 0.32, -73.57 184.00 80
2 03/15/2021 14:43:35 0.04, -75.22 0.71, -78.13 332.07 80
3 03/16/2021 14:25:36 0.03, -75.23 -0.40, -73.13 237.79 80
4 03/18/2021 02:44:35 -0.03, -75.21 -0.62, -77.73 287.42 80
5 03/19/2021 02:21:17 -0.03, -75.22 0.55, -72.74 282.47 80
6 03/20/2021 14:40:09 0.03, -75.26 0.48, -77.31 233.17 80
7 03/21/2021 14:22:10 0.03, -75.27 -0.63, -72.31 337.00 80
8 03/23/2021 02:41:09 -0.03, -75.26 -0.39, -76.90 187.53 80
9 03/24/2021 02:17:49 -0.03, -75.27 0.73, -71.91 382.72 80
10 03/25/2021 14:36:42 0.02, -75.31 0.30, -76.47 132.42 80
11 03/26/2021 14:18:42 0.02, -75.33 -0.81, -71.48 438.38 80
